• In Deutschland
  • Länderverzeichnis
  • Für 7 Tage
  • Wassertemperatur
  • Satellitenkarten
  • Wetterkarte
  • Widgets
  • user-avatar
    Anmelden

    Stündliche Wetter Satif

    Heute, 22 Juli, Samstag

    Zeit Temperatur Niederschläge Wind Luftdruck Luftfeuchtigkeit
    00:00 +28°C° 0 mm 1 m/S 673 mmHg 46%
    01:00 +28°C° 0 mm 1 m/S 673 mmHg 45%
    02:00 +28°C° 0 mm 1 m/S 673 mmHg 44%
    03:00 +26°C° 0 mm 0 m/S 673 mmHg 43%
    04:00 +28°C° 0 mm 1 m/S 673 mmHg 40%
    05:00 +29°C° 0 mm 1 m/S 674 mmHg 36%
    06:00 +29°C° 0 mm 2 m/S 674 mmHg 33%
    07:00 +31°C° 0 mm 3 m/S 675 mmHg 29%
    08:00 +34°C° 0 mm 4 m/S 675 mmHg 26%
    09:00 +35°C° 0 mm 5 m/S 676 mmHg 23%
    10:00 +37°C° 0 mm 5 m/S 676 mmHg 20%
    11:00 +39°C° 0 mm 6 m/S 677 mmHg 18%
    12:00 +40°C° 0 mm 7 m/S 677 mmHg 16%
    13:00 +40°C° 0 mm 6 m/S 677 mmHg 16%
    14:00 +40°C° 0 mm 6 m/S 676 mmHg 16%
    15:00 +40°C° 0 mm 6 m/S 676 mmHg 17%
    16:00 +39°C° 0,2 mm 6 m/S 676 mmHg 19%
    17:00 +36°C° 0,2 mm 6 m/S 676 mmHg 22%
    18:00 +35°C° 0,2 mm 6 m/S 676 mmHg 25%
    19:00 +35°C° 0,2 mm 5 m/S 676 mmHg 24%
    20:00 +34°C° 0,2 mm 4 m/S 677 mmHg 24%
    21:00 +34°C° 0,2 mm 3 m/S 677 mmHg 24%
    22:00 +33°C° 0,1 mm 3 m/S 677 mmHg 25%
    23:00 +33°C° 0,1 mm 4 m/S 677 mmHg 25%

    Morgen, 23 Juli, Sonntag

    Zeit Temperatur Niederschläge Wind Luftdruck Luftfeuchtigkeit
    00:00 +33°C° 0,1 mm 4 m/S 677 mmHg 25%
    01:00 +33°C° 0 mm 4 m/S 677 mmHg 24%
    02:00 +33°C° 0 mm 5 m/S 677 mmHg 23%
    03:00 +33°C° 0 mm 5 m/S 677 mmHg 23%
    04:00 +33°C° 0 mm 4 m/S 677 mmHg 23%
    05:00 +33°C° 0 mm 4 m/S 677 mmHg 24%
    06:00 +33°C° 0 mm 3 m/S 677 mmHg 25%
    07:00 +34°C° 0 mm 4 m/S 678 mmHg 23%
    08:00 +36°C° 0 mm 5 m/S 678 mmHg 20%
    09:00 +38°C° 0 mm 6 m/S 679 mmHg 18%
    10:00 +39°C° 0 mm 6 m/S 679 mmHg 17%
    11:00 +40°C° 0 mm 6 m/S 679 mmHg 16%
    12:00 +41°C° 0 mm 6 m/S 679 mmHg 14%
    13:00 +41°C° 0 mm 6 m/S 678 mmHg 15%
    14:00 +41°C° 0 mm 5 m/S 678 mmHg 16%
    15:00 +40°C° 0 mm 5 m/S 677 mmHg 17%
    16:00 +40°C° 0,1 mm 4 m/S 677 mmHg 17%
    17:00 +38°C° 0,1 mm 3 m/S 677 mmHg 18%
    18:00 +38°C° 0,1 mm 3 m/S 676 mmHg 19%
    19:00 +36°C° 0,1 mm 3 m/S 676 mmHg 22%
    20:00 +35°C° 0,1 mm 3 m/S 677 mmHg 24%
    21:00 +34°C° 0,1 mm 3 m/S 677 mmHg 27%
    22:00 +33°C° 0,1 mm 3 m/S 676 mmHg 28%
    23:00 +33°C° 0,1 mm 3 m/S 676 mmHg 29%

    übermorgen, 24 Juli, Montag

    Zeit Temperatur Niederschläge Wind Luftdruck Luftfeuchtigkeit
    00:00 +31°C° 0,1 mm 3 m/S 676 mmHg 30%
    01:00 +31°C° 0 mm 3 m/S 676 mmHg 32%
    02:00 +30°C° 0 mm 3 m/S 675 mmHg 35%
    03:00 +29°C° 0 mm 3 m/S 675 mmHg 37%
    04:00 +29°C° 0 mm 2 m/S 675 mmHg 40%
    05:00 +28°C° 0 mm 2 m/S 674 mmHg 43%
    06:00 +28°C° 0 mm 1 m/S 674 mmHg 46%
    07:00 +29°C° 0 mm 2 m/S 675 mmHg 43%
    08:00 +30°C° 0 mm 3 m/S 675 mmHg 40%
    09:00 +31°C° 0 mm 3 m/S 675 mmHg 37%
    10:00 +33°C° 0 mm 4 m/S 675 mmHg 34%
    11:00 +35°C° 0 mm 5 m/S 675 mmHg 32%
    12:00 +36°C° 0 mm 5 m/S 675 mmHg 29%
    13:00 +36°C° 0 mm 6 m/S 675 mmHg 30%
    14:00 +35°C° 0 mm 6 m/S 675 mmHg 32%
    15:00 +35°C° 0 mm 6 m/S 674 mmHg 33%
    16:00 +34°C° 0 mm 6 m/S 674 mmHg 39%
    17:00 +32°C° 0 mm 5 m/S 674 mmHg 45%
    18:00 +29°C° 0 mm 5 m/S 673 mmHg 52%
    19:00 +28°C° 0 mm 4 m/S 673 mmHg 58%
    20:00 +26°C° 0 mm 3 m/S 674 mmHg 64%
    21:00 +25°C° 0 mm 3 m/S 674 mmHg 70%
    22:00 +24°C° 0 mm 3 m/S 673 mmHg 72%
    23:00 +24°C° 0 mm 2 m/S 673 mmHg 73%

    25 Juli, Dienstag

    Zeit Temperatur Niederschläge Wind Luftdruck Luftfeuchtigkeit
    00:00 +23°C° 0 mm 2 m/S 673 mmHg 75%
    01:00 +21°C° 0 mm 2 m/S 673 mmHg 76%
    02:00 +21°C° 0 mm 2 m/S 672 mmHg 77%
    03:00 +21°C° 0 mm 2 m/S 672 mmHg 77%
    04:00 +20°C° 0 mm 2 m/S 672 mmHg 75%
    05:00 +20°C° 0 mm 2 m/S 672 mmHg 73%
    06:00 +20°C° 0 mm 2 m/S 672 mmHg 71%
    07:00 +23°C° 0 mm 2 m/S 673 mmHg 61%
    08:00 +25°C° 0 mm 2 m/S 673 mmHg 52%
    09:00 +26°C° 0 mm 2 m/S 673 mmHg 43%
    10:00 +27°C° 0 mm 2 m/S 673 mmHg 38%
    11:00 +29°C° 0 mm 2 m/S 674 mmHg 34%
    12:00 +30°C° 0 mm 2 m/S 674 mmHg 30%
    13:00 +31°C° 0 mm 2 m/S 673 mmHg 30%
    14:00 +31°C° 0 mm 3 m/S 673 mmHg 29%
    15:00 +33°C° 0 mm 4 m/S 673 mmHg 28%
    16:00 +32°C° 0 mm 4 m/S 673 mmHg 32%
    17:00 +30°C° 0 mm 4 m/S 672 mmHg 37%
    18:00 +29°C° 0 mm 3 m/S 672 mmHg 41%
    19:00 +28°C° 0 mm 3 m/S 672 mmHg 47%
    20:00 +26°C° 0 mm 3 m/S 672 mmHg 53%
    21:00 +25°C° 0 mm 2 m/S 672 mmHg 59%
    22:00 +24°C° 0 mm 2 m/S 672 mmHg 61%
    23:00 +24°C° 0 mm 2 m/S 671 mmHg 63%

    26 Juli, Mittwoch

    Zeit Temperatur Niederschläge Wind Luftdruck Luftfeuchtigkeit
    00:00 +23°C° 0 mm 2 m/S 671 mmHg 65%
    01:00 +23°C° 0 mm 2 m/S 671 mmHg 66%
    02:00 +23°C° 0 mm 1 m/S 671 mmHg 68%
    03:00 +22°C° 0 mm 1 m/S 671 mmHg 69%
    04:00 +22°C° 0 mm 1 m/S 671 mmHg 68%
    05:00 +22°C° 0 mm 1 m/S 671 mmHg 68%
    06:00 +22°C° 0 mm 1 m/S 671 mmHg 67%
    07:00 +24°C° 0 mm 1 m/S 672 mmHg 58%
    08:00 +25°C° 0 mm 1 m/S 673 mmHg 49%
    09:00 +27°C° 0 mm 1 m/S 673 mmHg 39%
    10:00 +28°C° 0 mm 2 m/S 673 mmHg 35%
    11:00 +30°C° 0 mm 2 m/S 673 mmHg 30%
    12:00 +31°C° 0 mm 3 m/S 673 mmHg 26%
    13:00 +33°C° 0 mm 4 m/S 673 mmHg 26%
    14:00 +33°C° 0 mm 4 m/S 673 mmHg 26%
    15:00 +33°C° 0 mm 5 m/S 673 mmHg 26%
    16:00 +32°C° 0 mm 5 m/S 672 mmHg 31%
    17:00 +30°C° 0 mm 5 m/S 672 mmHg 35%
    18:00 +29°C° 0 mm 5 m/S 672 mmHg 39%
    19:00 +27°C° 0 mm 4 m/S 672 mmHg 44%
    20:00 +26°C° 0 mm 3 m/S 672 mmHg 49%
    21:00 +25°C° 0 mm 2 m/S 672 mmHg 54%
    22:00 +24°C° 0 mm 2 m/S 672 mmHg 54%
    23:00 +24°C° 0 mm 2 m/S 672 mmHg 55%

    27 Juli, Donnerstag

    Zeit Temperatur Niederschläge Wind Luftdruck Luftfeuchtigkeit
    00:00 +24°C° 0 mm 2 m/S 672 mmHg 55%
    01:00 +23°C° 0 mm 2 m/S 672 mmHg 56%
    02:00 +23°C° 0 mm 1 m/S 672 mmHg 57%
    03:00 +23°C° 0 mm 1 m/S 671 mmHg 58%
    04:00 +23°C° 0 mm 1 m/S 672 mmHg 57%
    05:00 +23°C° 0 mm 1 m/S 672 mmHg 57%
    06:00 +23°C° 0 mm 1 m/S 672 mmHg 56%
    07:00 +24°C° 0 mm 1 m/S 673 mmHg 48%
    08:00 +26°C° 0 mm 2 m/S 673 mmHg 41%
    09:00 +27°C° 0 mm 2 m/S 674 mmHg 33%
    10:00 +28°C° 0 mm 2 m/S 674 mmHg 30%
    11:00 +29°C° 0 mm 3 m/S 674 mmHg 28%
    12:00 +32°C° 0 mm 4 m/S 674 mmHg 25%
    13:00 +32°C° 0 mm 4 m/S 674 mmHg 25%
    14:00 +32°C° 0 mm 4 m/S 674 mmHg 24%
    15:00 +32°C° 0 mm 5 m/S 674 mmHg 24%
    16:00 +30°C° 0 mm 5 m/S 674 mmHg 27%
    17:00 +29°C° 0 mm 5 m/S 674 mmHg 29%
    18:00 +28°C° 0 mm 4 m/S 674 mmHg 31%
    19:00 +27°C° 0 mm 4 m/S 674 mmHg 34%
    20:00 +26°C° 0 mm 3 m/S 674 mmHg 37%
    21:00 +25°C° 0 mm 2 m/S 675 mmHg 40%
    22:00 +25°C° 0 mm 2 m/S 675 mmHg 41%
    23:00 +24°C° 0 mm 1 m/S 674 mmHg 41%
    Mehr zeigen